User: anonymous   Login
Location: Brno
(49.2000°N, 16.6330°E)
Time: 06:12:43
(UTC+02:00)
Language:

Transit 4A - Orbit

View from above orbital plane
View from above orbital plane
View from above satellite
View from above satellite

Ground track
Ground track

The orbit data is extracted from the following two-line orbital elements,

1 00116U 61015A   21212.50259103 -.00000065  00000-0  88187-5 0  9993
2 00116  66.8101 288.2317 0068602  81.5982 279.2867 13.91793974 48723
Epoch (UTC): 31 July 2021 12:03:43
Eccentricity: 0.0068602
inclination: 66.8101°
perigee height: 872 km
apogee height: 972 km
right ascension of ascending node: 288.2317°
argument of perigee: 81.5982°
revolutions per day: 13.91793974
mean anomaly at epoch: 279.2867°
orbit number at epoch: 4872

The dashed part of the orbit path shows where the satellite is in the earth's shadow,  

DLR